Weather observations for the past three days for
New Braunfels National Airport
Imperial (Metric)
Date Time (cdt) Wind (mph) Vis. (mi.) Weather Sky Cond. Temperature (ºF) Relative Humidity Wind Chill (°F) Heat Index (°F) Pressure Precipitation (in)
Air Dwpt 6 hour altimeter (in) sea level (mb) 1 hr 3 hr 6 hr
Max. Min.
25 11:51 S 7 10.00 A Few Clouds FEW041 90 75.9 63% 102 29.95 1013.0
25 10:51 S 8 10.00 Fair CLR 86 75 70% 95 29.95 1013.2
25 09:51 S 10 10.00 Partly Cloudy SCT018 87.1 75.9 70% 98 29.96 1013.4
25 08:51 SW 10 10.00 Mostly Cloudy BKN016 82 75.9 82% 89 29.96 1013.5
25 07:51 S 9 10.00 Mostly Cloudy BKN009 81 79 94% 89 29.95 1013.1
25 06:51 S 5 10.00 Mostly Cloudy BKN009 BKN013 79 78.1 82 79 97% 83 29.94 1012.8
25 05:51 S 3 10.00 Overcast BKN010 OVC021 80.1 78.1 94% 86 29.93 1012.4
25 03:51 S 5 10.00 Mostly Cloudy BKN012 BKN017 79 77 94% 83 29.92 1011.9
25 02:51 S 6 10.00 Partly Cloudy SCT012 80.1 77 90% 86 29.92 1012.0
25 01:51 S 7 10.00 Fair CLR 81 77 88% 88 29.92 1012.2
25 00:51 S 9 10.00 Fair CLR 82 77 93 81 85% 90 29.92 1012.2
24 23:51 S 9 10.00 Fair CLR 82.9 77 82% 92 29.91 1011.9
24 22:51 SE 7 10.00 Fair CLR 84 77 80% 94 29.9 1011.4
24 21:51 SE 7 10.00 Fair CLR 84.9 77 77% 95 29.88 1010.8
24 20:51 SE 8 10.00 Fair CLR 87.1 77 72% 99 29.86 1010.2
24 19:51 SE 9 10.00 Partly Cloudy FEW047 SCT055 90 75.9 63% 102 29.86 1010.1
24 18:51 SE 12 10.00 Fair CLR 93 77 97 91.9 60% 107 29.86 1010.1
24 17:51 E 12 10.00 Partly Cloudy FEW050 SCT060 96.1 77 54% 111 29.87 1010.3
24 16:51 Vrbl 6 10.00 A Few Clouds FEW048 95 75 53% 107 29.88 1010.7
24 15:51 Vrbl 3 10.00 Partly Cloudy SCT055 93.9 75 54% 106 29.9 1011.5
24 14:51 E 8 10.00 A Few Clouds FEW060 93.9 75 54% 106 29.92 1012.2
24 13:51 Vrbl 6 10.00 Partly Cloudy SCT042 91.9 75 58% 103 29.94 1012.8
24 12:51 Calm 10.00 A Few Clouds FEW042 91.9 75.9 93 77 60% 104 29.96 1013.4
24 11:51 Vrbl 5 10.00 Mostly Cloudy BKN032 BKN044 89.1 75.9 65% 100 29.97 1013.9
24 10:51 Vrbl 3 10.00 Mostly Cloudy BKN027 88 77 70% 100 29.97 1013.9
24 09:51 Calm 10.00 Partly Cloudy SCT023 84.9 75.9 75% 94 29.97 1014.0
24 08:51 S 5 10.00 Partly Cloudy SCT010 82 77 85% 90 29.97 1014.0
24 07:51 Calm 10.00 Mostly Cloudy BKN012 79 78.1 97% 83 29.96 1013.4
24 06:51 S 3 10.00 A Few Clouds FEW009 77 75.9 80.1 77 96% 78 29.94 1012.9
24 05:51 SE 3 10.00 Overcast BKN007 OVC014 78.1 75.9 93% 81 29.93 1012.4
24 04:51 Calm 10.00 Overcast OVC011 78.1 75.9 93% 81 29.92 1012.1
24 03:51 Calm 10.00 Mostly Cloudy BKN011 78.1 75.9 93% 81 29.93 1012.4
24 02:51 S 5 10.00 Fair CLR 78.1 75.9 93% 81 29.93 1012.5
24 01:51 Calm 10.00 Fair CLR 78.1 75.9 93% 81 29.94 1012.8
24 00:51 SE 3 10.00 Fair CLR 80.1 77 93 80.1 90% 86 29.94 1012.9
23 23:51 SE 3 10.00 A Few Clouds FEW055 81 77 88% 88 29.94 1013.0
23 22:51 SE 7 10.00 Fair CLR 82 77 85% 90 29.93 1012.4
23 21:51 SE 7 10.00 Fair CLR 82.9 75.9 79% 91 29.91 1012.0
23 20:51 SE 9 10.00 Fair CLR 84.9 75.9 75% 94 29.9 1011.4
23 19:51 E 7 10.00 Fair CLR 91 73 56% 100 29.89 1011.0
23 18:51 E 9 10.00 Fair CLR 93 73 95 90 52% 102 29.88 1010.8
23 17:51 SE 10 G 17 10.00 A Few Clouds FEW049 93 73.9 54% 103 29.89 1011.2
23 16:51 Calm 10.00 A Few Clouds FEW049 95 73 49% 105 29.91 1011.7
23 15:51 SE 6 10.00 Fair CLR 93 73.9 54% 103 29.92 1012.3
23 14:51 E 8 10.00 A Few Clouds FEW047 93 73.9 54% 103 29.94 1013.0
23 13:51 Vrbl 3 10.00 Fair CLR 93 72 50% 101 29.96 1013.5
23 12:51 E 7 10.00 Fair CLR 90 70 91 72 52% 95 29.98 1014.2
23 11:51 Calm 10.00 Fair CLR 89.1 71.1 55% 95 29.99 1014.6
23 10:51 E 5 10.00 Fair CLR 84.9 71.1 63% 90 30 1014.7
23 09:51 E 3 10.00 Fair CLR 82.9 73.9 74% 89 30 1014.9
23 08:51 E 3 10.00 Fair CLR 81 73 77% 86 30 1014.8
23 07:51 Calm 10.00 Fair CLR 77 73.9 90% 78 29.99 1014.6
23 06:51 NW 3 8.00 Fair CLR 72 71.1 77 72 97% 29.98 1014.2
23 05:51 NW 5 10.00 Fair CLR 73 71.1 94% 29.97 1013.8
23 04:51 NW 3 10.00 Fair CLR 73.9 72 94% 29.96 1013.7
23 03:51 NW 5 10.00 Fair CLR 73.9 72 94% 29.97 1013.8
23 02:51 W 3 10.00 Fair CLR 73.9 72 94% 29.98 1014.3
23 01:51 S 6 10.00 Fair CLR 75.9 73 91% 76 30 1014.8
23 00:51 S 7 10.00 Fair CLR 77 73 91.9 77 88% 78 30.01 1015.1
22 23:51 S 8 10.00 Fair CLR 78.1 72 82% 80 30.01 1015.2
22 22:51 SE 6 10.00 Fair CLR 79 73 82% 82 29.99 1014.6
22 21:51 E 5 10.00 Fair CLR 82 73 74% 87 29.98 1014.1
22 20:51 E 6 10.00 Fair CLR 84 73 70% 90 29.97 1013.7
22 19:51 E 9 10.00 A Few Clouds FEW046 89.1 72 57% 96 29.96 1013.4
22 18:51 E 10 10.00 A Few Clouds FEW050 FEW080 91.9 71.1 93.9 90 51% 99 29.95 1013.3
22 17:51 E 7 10.00 A Few Clouds FEW050 91 71.1 52% 98 29.95 1013.3
22 16:51 E 5 10.00 A Few Clouds FEW075 93.9 72 49% 102 29.97 1013.8
22 15:51 Vrbl 6 10.00 Mostly Cloudy FEW050 SCT060 BKN075 93 72 50% 101 29.99 1014.4
22 14:51 SE 9 10.00 A Few Clouds FEW055 FEW065 93 73 52% 102 30.01 1015.2
22 13:51 Vrbl 3 G 17 10.00 A Few Clouds FEW047 91 71.1 52% 98 30.03 1015.8
22 12:51 SE 7 10.00 A Few Clouds FEW042 90 72 90 75.9 56% 97 30.04 1016.2
Date Time (cdt) Wind (mph) Vis. (mi.) Weather Sky Cond. Air Dwpt Max. Min. Relative Humidity Wind Chill (°F) Heat Index (°F) altimeter (in) sea level (mb) 1 hr 3 hr 6 hr
6 hour
Temperature (ºF) Pressure Precipitation (in)